This demonstration page uses our WeatherBlox Daily Observations layout. Learn more.

Left ArrowRight Arrow

39.01783, -85.05884

Hourly Observations for September 16, 2021

Temp ( °F °C ) Dew Point ( °F °C ) Humidity (%) Winds ( mph kmh ) Pressure ( in mb ) Visibility ( mi km ) Precip ( " mm )
12:52 am 00:52 Mostly Clear 68 20 58 14.4 70 70 NNE 7 11 30.03 1017 10 16 N/A
1:52 am 01:52 Mostly Cloudy 69 20.6 58 14.4 68 68 ENE 6 9 30.03 1017 10 16 N/A
2:52 am 02:52 Cloudy 68 20 59 15 73 73 ENE 6 9 30.02 1017 10 16 N/A
3:52 am 03:52 Mostly Clear 65 18.3 59 15 81 81 NNE 5 7 30.03 1017 10 16 N/A
4:49 am 04:49 Mostly Cloudy 64 18 61 16 88 88 E 5 7 30.03 1017 10 16 N/A
4:52 am 04:52 Mostly Cloudy 65 18.3 60 15.6 84 84 E 5 7 30.03 1017 10 16 N/A
4:54 am 04:54 Mostly Cloudy 65 18.3 60 15.6 84 84 E 3 6 30.03 1017 10 16 N/A
5:52 am 05:52 Cloudy 67 19.4 62 16.7 84 84 ENE 6 9 30.04 1017 10 16 N/A
6:52 am 06:52 Cloudy 67 19.4 62 16.7 84 84 E 7 11 30.05 1018 7 11 N/A
7:52 am 07:52 Cloudy 67 19.4 62 16.7 84 84 E 5 7 30.07 1018 7 11 N/A
8:52 am 08:52 Cloudy 68 20 63 17.2 84 84 ENE 6 9 30.09 1019 7 11 N/A
9:52 am 09:52 Cloudy 70 21.1 64 17.8 82 82 E 7 11 30.09 1019 7 11 N/A
9:57 am 09:57 Cloudy 70 21.1 64 17.8 82 82 E 6 9 30.09 1019 7 11 N/A
10:52 am 10:52 Cloudy 72 22.2 64 17.8 76 76 ENE 5 7 30.10 1019 8 13 N/A
11:12 am 11:12 Mostly Cloudy 74 23.3 64 17.8 71 71 E 6 9 30.10 1019 8 13 N/A
11:52 am 11:52 Mostly Cloudy 74 23.3 64 17.8 71 71 NE 6 9 30.10 1019 10 16 N/A
12:52 pm 12:52 Partly Cloudy 77 25 64 17.8 64 64 ESE 9 15 30.09 1019 10 16 N/A
1:42 pm 13:42 Mostly Cloudy 79 26.1 64 17.8 60 60 NE 8 13 30.07 1018 10 16 N/A
1:52 pm 13:52 Mostly Cloudy 78 25.6 64 17.8 62 62 NE 9 15 30.08 1019 10 16 N/A
2:39 pm 14:39 Cloudy 78 25.6 63 17.2 60 60 NE 8 13 30.05 1018 10 16 N/A
2:52 pm 14:52 Cloudy 78 25.6 64 17.8 62 62 NE 10 17 30.06 1018 10 16 N/A
3:52 pm 15:52 Mostly Cloudy 80 26.7 64 17.8 58 58 NE 10 17 30.04 1017 10 16 N/A
4:52 pm 16:52 Mostly Cloudy 80 26.7 63 17.2 56 56 NE 10 17 30.04 1017 10 16 N/A
5:52 pm 17:52 Partly Cloudy 81 27.2 63 17.2 54 54 E 3 6 30.04 1017 10 16 N/A
6:52 pm 18:52 Mostly Sunny 79 26.1 63 17.2 58 58 NE 9 15 30.04 1017 10 16 N/A
7:52 pm 19:52 Mostly Clear 76 24.4 63 17.2 64 64 E 8 13 30.04 1017 10 16 N/A
8:52 pm 20:52 Clear 73 22.8 63 17.2 71 71 E 7 11 30.06 1018 10 16 N/A
9:52 pm 21:52 Clear 72 22.2 63 17.2 73 73 E 8 13 30.08 1019 10 16 N/A
10:52 pm 22:52 Clear 72 22.2 64 17.8 76 76 ESE 5 7 30.09 1019 10 16 N/A
11:52 pm 23:52 Clear 70 21.1 64 17.8 82 82 E 5 7 30.09 1019 10 16 N/A

Powered by AerisWeather